Phuket, Thailand

1:32 PM +07 on April 23, 2017 (GMT +0700)
Phuket International

Weather History for VTSP - August, 2013

Change the Weather History Date:

Saturday, August 17, 2013

  Actual Average Record
Temperature  
Mean Temperature 82 °F -  
Max Temperature 88 °F 87 °F 93 °F (1997)
Min Temperature 75 °F 77 °F 72 °F (2015)
Cooling Degree Days 16    
Growing Degree Days 32 (Base 50)    
Moisture  
Dew Point 73 °F    
Average Humidity 74    
Maximum Humidity 89    
Minimum Humidity 57    
Precipitation  
Precipitation 0.00 in 0.46 in - ()
Sea Level Pressure  
Sea Level Pressure 29.84 in    
Wind  
Wind Speed 6 mph ()    
Max Wind Speed 15 mph    
Max Gust Speed -    
Visibility 5.7 miles    
Events      
Averages and records for this station are not official NWS values.
T = Trace of Precipitation, MM = Missing Value Source: Averaged Metar Reports

Daily Weather History Graph

Daily Weather History Graph

Search for Another Location

Airport or City:

Trip Planner

Search our weather history database for the weather conditions in past years. The results will help you decide how hot, cold, wet, or windy it might be!

Date:

Astronomy

Aug. 17, 2013 Rise Set
Actual Time 6:19 AM +07 6:41 PM +07
Civil Twilight 5:58 AM +07 7:03 PM +07
Nautical Twilight 5:32 AM +07 7:28 PM +07
Astronomical Twilight 5:07 AM +07 7:53 PM +07
Moon 3:07 PM +07 (8/17) 2:12 AM +07 (8/17)
Length of Visible Light 13h 05m
Length of Day
12h 22m
Waxing Gibbous, 80% of the Moon is Illuminated
Aug 17
Waxing Gibbous
Aug 21
Full
Aug 28
Last Quarter
Sep 5
New
Sep 13
First Quarter

Hourly Weather History & Observations

Time (+07) Temp. Heat Index Dew Point Humidity Pressure Visibility Wind Dir Wind Speed Gust Speed Precip Events Conditions
12:00 AM 78.8 °F - 73.4 °F 83% 29.86 in 5.0 mi NW 4.6 mph - N/A   Mostly Cloudy
12:30 AM 80.6 °F 85.4 °F 73.4 °F 79% 29.86 in 5.0 mi Variable 2.3 mph - N/A   Mostly Cloudy
1:00 AM 78.8 °F - 73.4 °F 83% 29.86 in 5.0 mi Variable 2.3 mph - N/A   Mostly Cloudy
1:30 AM 78.8 °F - 73.4 °F 83% 29.83 in 5.0 mi NNW 4.6 mph - N/A   Mostly Cloudy
2:00 AM 77.0 °F - 73.4 °F 89% 29.83 in 5.0 mi Calm Calm - N/A   Mostly Cloudy
2:30 AM 78.8 °F - 73.4 °F 83% 29.83 in 5.0 mi NW 4.6 mph - N/A   Mostly Cloudy
3:00 AM 77.0 °F - 73.4 °F 89% 29.83 in 5.0 mi Calm Calm - N/A   Mostly Cloudy
3:30 AM 77.0 °F - 73.4 °F 89% 29.83 in 5.0 mi Calm Calm - N/A   Mostly Cloudy
4:00 AM 77.0 °F - 73.4 °F 89% 29.83 in 5.0 mi Calm Calm - N/A   Mostly Cloudy
4:30 AM 78.8 °F - 73.4 °F 83% 29.83 in 5.0 mi WNW 6.9 mph - N/A   Mostly Cloudy
5:00 AM 78.8 °F - 73.4 °F 83% 29.83 in 5.0 mi WNW 5.8 mph - N/A   Mostly Cloudy
5:30 AM 78.8 °F - 73.4 °F 83% 29.83 in 5.0 mi West 5.8 mph - N/A   Mostly Cloudy
6:00 AM 80.6 °F 85.4 °F 73.4 °F 79% 29.83 in 5.0 mi WNW 6.9 mph - N/A   Mostly Cloudy
6:30 AM 78.8 °F - 73.4 °F 83% 29.83 in 5.0 mi West 4.6 mph - N/A   Mostly Cloudy
7:00 AM 83 °F - 76 °F 73% 29.80 in 6 mi Calm Calm - -   Scattered Clouds
7:00 AM 80.6 °F 85.4 °F 73.4 °F 79% 29.83 in 5.0 mi West 4.6 mph - N/A   Mostly Cloudy
7:30 AM 80.6 °F 85.4 °F 73.4 °F 79% 29.86 in 5.0 mi NNW 4.6 mph - N/A   Mostly Cloudy
8:00 AM 80.6 °F 85.4 °F 73.4 °F 79% 29.86 in 5.0 mi WNW 11.5 mph - N/A   Mostly Cloudy
8:30 AM 84.2 °F 92.3 °F 75.2 °F 74% 29.89 in 6.2 mi West 9.2 mph - N/A   Scattered Clouds
9:00 AM 84.2 °F 92.3 °F 75.2 °F 74% 29.89 in 6.2 mi West 8.1 mph - N/A   Scattered Clouds
9:30 AM 84.2 °F 92.3 °F 75.2 °F 74% 29.89 in 6.2 mi WSW 11.5 mph - N/A   Scattered Clouds
10:00 AM 86.0 °F 95.1 °F 75.2 °F 70% 29.89 in 6.2 mi West 11.5 mph - N/A   Scattered Clouds
10:30 AM 86.0 °F 93.4 °F 73.4 °F 66% 29.89 in 6.2 mi West 11.5 mph - N/A   Scattered Clouds
11:00 AM 86.0 °F 95.1 °F 75.2 °F 70% 29.89 in 6.2 mi West 11.5 mph - N/A   Scattered Clouds
11:30 AM 86.0 °F 95.1 °F 75.2 °F 70% 29.89 in 6.2 mi West 11.5 mph - N/A   Scattered Clouds
12:00 PM 86.0 °F 95.1 °F 75.2 °F 70% 29.89 in 6.2 mi West 11.5 mph - N/A   Scattered Clouds
12:30 PM 86.0 °F 93.4 °F 73.4 °F 66% 29.86 in 6.2 mi West 9.2 mph - N/A   Scattered Clouds
1:00 PM 88 °F - 75 °F 57% 29.83 in 6 mi West 5.8 mph - -   Scattered Clouds
1:00 PM 86.0 °F 91.8 °F 71.6 °F 62% 29.86 in 6.2 mi West 11.5 mph - N/A   Scattered Clouds
1:30 PM 86.0 °F 93.4 °F 73.4 °F 66% 29.86 in 6.2 mi West 11.5 mph - N/A   Scattered Clouds
2:00 PM 86.0 °F 93.4 °F 73.4 °F 66% 29.83 in 6.2 mi West 13.8 mph - N/A   Scattered Clouds
2:30 PM 86.0 °F 93.4 °F 73.4 °F 66% 29.83 in 6.2 mi West 13.8 mph - N/A   Scattered Clouds
3:00 PM 86.0 °F 93.4 °F 73.4 °F 66% 29.80 in 6.2 mi West 12.7 mph - N/A   Scattered Clouds
3:30 PM 86.0 °F 93.4 °F 73.4 °F 66% 29.80 in 6.2 mi West 15.0 mph - N/A   Scattered Clouds
4:00 PM 86.0 °F 95.1 °F 75.2 °F 70% 29.80 in 6.2 mi West 12.7 mph - N/A   Scattered Clouds
4:30 PM 86.0 °F 93.4 °F 73.4 °F 66% 29.77 in 6.2 mi WNW 13.8 mph - N/A   Scattered Clouds
5:00 PM 84.2 °F 90.9 °F 73.4 °F 70% 29.77 in 6.2 mi West 11.5 mph - N/A   Scattered Clouds
5:30 PM 84.2 °F 90.9 °F 73.4 °F 70% 29.77 in 6.2 mi West 13.8 mph - N/A   Scattered Clouds
6:30 PM 82.4 °F 88.2 °F 73.4 °F 74% 29.77 in 6.2 mi West 11.5 mph - N/A   Mostly Cloudy
7:00 PM 85 °F - 73 °F 60% 29.76 in 6 mi West 5.8 mph - -   Scattered Clouds
7:00 PM 82.4 °F 87.2 °F 71.6 °F 70% 29.80 in 6.2 mi WNW 11.5 mph - N/A   Mostly Cloudy
7:30 PM 82.4 °F 87.2 °F 71.6 °F 70% 29.80 in 6.2 mi WNW 9.2 mph - N/A   Mostly Cloudy
8:00 PM 82.4 °F 88.2 °F 73.4 °F 74% 29.83 in 6.2 mi WNW 8.1 mph - N/A   Scattered Clouds
8:30 PM 82.4 °F 87.2 °F 71.6 °F 70% 29.83 in 5.6 mi WNW 9.2 mph - N/A   Scattered Clouds
9:00 PM 82.4 °F 87.2 °F 71.6 °F 70% 29.83 in 5.6 mi WNW 9.2 mph - N/A   Scattered Clouds
9:30 PM 82.4 °F 87.2 °F 71.6 °F 70% 29.86 in 5.6 mi West 11.5 mph - N/A   Scattered Clouds
10:00 PM 82.4 °F 87.2 °F 71.6 °F 70% 29.86 in 5.6 mi West 11.5 mph - N/A   Scattered Clouds
10:30 PM 82.4 °F 87.2 °F 71.6 °F 70% 29.89 in 5.6 mi WNW 10.4 mph - N/A   Scattered Clouds
11:00 PM 82.4 °F 87.2 °F 71.6 °F 70% 29.89 in 5.6 mi West 11.5 mph - N/A   Scattered Clouds
11:30 PM 82.4 °F 87.2 °F 71.6 °F 70% 29.89 in 5.6 mi West 11.5 mph - N/A   Scattered Clouds